Location: Star Hoppers Observatory
(42.7905°N, 83.6127°W)
Time: 20:35:39
(UTC-05:00)

Amateur Radio Satellites - All Passes

Search period start: 26 November 2014 20:05
Search period end: 27 November 2014 20:05
Location: Star Hoppers Observatory, 42.7905°N, 83.6127°W

Satellite Date Start Highest point End Downlink Frequencies (MHz)
Time Altitude Azimuth
UKube-1 26 Nov 20:09:59 20:11:55 13° 61° (ENE) 20:13:52 .
SEEDS 26 Nov 20:11:13 20:14:57 32° 70° (ENE) 20:18:43 437.485
CUBESAT XI-V 26 Nov 20:11:52 20:16:10 37° 290° (WNW) 20:20:25 437.345
Oscar 11 26 Nov 20:19:43 20:22:29 17° 64° (ENE) 20:25:16 145.826/435.025
BRITE-PL 26 Nov 20:21:19 20:26:08 51° 73° (ENE) 20:30:35 437.365/2234.400
BEESAT 3 26 Nov 20:22:50 20:26:53 63° 120° (ESE) 20:31:01 437.485
AAUSAT CUBESAT 2 26 Nov 20:26:27 20:30:14 35° 70° (ENE) 20:34:04 437.432
DELFI C3 26 Nov 20:29:11 20:31:49 17° 65° (ENE) 20:34:27 145.870
AIST 1 26 Nov 20:32:55 20:37:11 49° 282° (WNW) 20:41:29
PCSat 26 Nov 20:35:03 20:40:23 60° 304° (NW) 20:45:46 145.827
PHONESAT 2.4 26 Nov 20:38:18 20:40:16 14° 211° (SSW) 20:42:13 2401.200-2431.200
BEESAT 2 26 Nov 20:38:50 20:42:57 84° 122° (ESE) 20:47:10 435.950
CANX-2 26 Nov 20:39:48 20:44:01 85° 76° (ENE) 20:48:16 2200.000
DOVE 4 26 Nov 20:41:43 20:46:02 43° 72° (ENE) 20:50:10 437.250
UWE-3 26 Nov 20:41:45 20:44:03 15° 64° (ENE) 20:46:21 435.000/436.395/437.385
COMPASS 1 26 Nov 20:41:56 20:46:02 60° 74° (ENE) 20:50:10 437.405
CUBEBUG 2 26 Nov 20:42:38 20:45:23 17° 65° (ENE) 20:48:07 437.445
HO-68 26 Nov 20:43:11 20:50:23 83° 254° (WSW) 20:57:38 435.675
DX 1 26 Nov 20:44:11 20:47:57 29° 68° (ENE) 20:51:43 434.975-435.025
RS-15 26 Nov 20:46:03 20:54:20 23° 353° (N) 21:02:47 29.354- 29.394
GONETS M04 26 Nov 20:57:37 21:05:44 43° 273° (W) 21:13:46
STRAND 1 26 Nov 21:01:03 21:04:29 19° 299° (WNW) 21:07:55 437.568
CINEMA 3 26 Nov 21:11:51 21:16:07 54° 74° (ENE) 21:20:15 145.822/145.860
ZACube-1 26 Nov 21:13:40 21:17:11 26° 68° (ENE) 21:20:40 437.345
CUTE 1.7 + AOD 2 26 Nov 21:14:39 21:18:39 42° 262° (W) 21:22:42 437.475
AIST 2 26 Nov 21:16:40 21:20:54 81° 304° (NW) 21:25:13 435.215
VELOX 1 26 Nov 21:17:55 21:21:19 22° 65° (ENE) 21:24:42 145.980
GOMX 1 26 Nov 21:27:10 21:31:46 47° 261° (W) 21:36:05 467.674
UKube-1 26 Nov 21:43:12 21:47:32 69° 258° (WSW) 21:51:54 .
AISAT 26 Nov 21:43:46 21:47:56 39° 70° (ENE) 21:52:06 437.250
SEEDS 26 Nov 21:47:35 21:50:51 22° 266° (W) 21:54:08 437.485
FUNcube-1 26 Nov 21:47:45 21:51:53 62° 74° (ENE) 21:56:00 145.935
Oscar 11 26 Nov 21:54:09 21:58:17 47° 261° (W) 22:02:29 145.826/435.025
CUBEBUG 1 26 Nov 21:54:47 21:57:55 19° 65° (ENE) 22:01:03 437.445
TIGRISAT 26 Nov 21:59:56 22:00:42 10° 89° (E) 22:01:29 435.000
BRITE-PL 26 Nov 22:01:32 22:04:51 18° 267° (W) 22:08:01 437.365/2234.400
BEESAT 3 26 Nov 22:02:42 22:05:32 18° 319° (NW) 22:08:23 437.485
DELFI C3 26 Nov 22:02:56 22:06:48 42° 262° (W) 22:10:42 145.870
AAUSAT CUBESAT 2 26 Nov 22:02:59 22:06:02 20° 267° (W) 22:09:07 437.432
50 SAT 26 Nov 22:09:12 22:13:08 54° 73° (ENE) 22:17:04 437.505
UNISAT 6 26 Nov 22:12:23 22:15:02 15° 92° (E) 22:17:42 437.425
UWE-3 26 Nov 22:16:04 22:20:12 53° 260° (W) 22:24:18 435.000/436.395/437.385
CUBEBUG 2 26 Nov 22:17:44 22:21:48 43° 261° (W) 22:25:49 437.445
BEESAT 2 26 Nov 22:19:28 22:21:50 15° 322° (NW) 22:24:14 435.950
DX 1 26 Nov 22:20:24 22:24:09 27° 264° (W) 22:27:54 434.975-435.025
COMPASS 1 26 Nov 22:20:38 22:22:10 12° 271° (W) 22:23:42 437.405
DOVE 4 26 Nov 22:20:52 22:23:59 18° 267° (W) 22:27:01 437.250
PCSat 26 Nov 22:22:30 22:24:59 13° 325° (NW) 22:27:28 145.827
HUMSAT D 26 Nov 22:25:55 22:30:03 80° 257° (WSW) 22:34:11 437.325/437.525
HO-68 26 Nov 22:35:27 22:39:06 14° 272° (W) 22:42:47 435.675
CUSAT 1 26 Nov 22:35:45 22:37:30 12° 70° (ENE) 22:39:23 437.405
ANTELSAT 26 Nov 22:40:13 22:44:10 30° 96° (E) 22:48:09 437.575/2403.000
ISS 26 Nov 22:43:02 22:45:14 17° 133° (SE) 22:47:27 145.825
POLYITAN 1 26 Nov 22:48:32 22:51:59 24° 95° (E) 22:55:26 437.675
ZACube-1 26 Nov 22:49:57 22:53:30 26° 264° (W) 22:57:03 437.345
QB50P2 26 Nov 22:50:09 22:53:40 25° 95° (E) 22:57:10 145.880/145.840
CINEMA 3 26 Nov 22:51:30 22:53:38 13° 269° (W) 22:55:45 145.822/145.860
VELOX 1 26 Nov 22:53:28 22:57:40 39° 262° (W) 23:01:52 145.980
ESTCUBE 1 26 Nov 22:54:40 22:59:13 82° 75° (ENE) 23:03:48 437.505/2401.250
DUCHIFAT 1 26 Nov 22:55:31 22:59:10 28° 96° (E) 23:02:48 145.980
AIST 2 26 Nov 22:58:06 23:00:15 13° 324° (NW) 23:02:24 435.215
RS-15 26 Nov 23:01:54 23:11:30 32° 28° (NNE) 23:21:22 29.354- 29.394
TISAT 1 26 Nov 23:02:16 23:05:45 25° 67° (ENE) 23:09:13 437.305
DANDE 26 Nov 23:04:04 23:07:13 18° 73° (ENE) 23:10:57 436.750
SPROUT 26 Nov 23:14:34 23:18:17 29° 69° (ENE) 23:22:01 437.525
NANOSAT C BR1 26 Nov 23:14:47 23:18:52 46° 99° (E) 23:22:55 145.865
AISAT 26 Nov 23:21:21 23:24:42 21° 266° (W) 23:28:04 437.250
QB50P1 26 Nov 23:24:44 23:28:56 60° 101° (E) 23:33:06 145.935-145.965
FUNcube-1 26 Nov 23:27:21 23:28:39 11° 270° (W) 23:29:58 145.935
CUBEBUG 1 26 Nov 23:29:44 23:33:59 44° 261° (W) 23:38:15 437.445
BUGSAT 1 26 Nov 23:30:48 23:34:51 57° 101° (E) 23:38:49 437.445
TIGRISAT 26 Nov 23:33:31 23:37:57 76° 285° (WNW) 23:42:28 435.000
50 SAT 26 Nov 23:47:08 23:48:47 12° 270° (W) 23:50:26 437.505
UNISAT 6 26 Nov 23:47:47 23:52:07 53° 287° (WNW) 23:56:32 437.425
POPSAT HIP 1 26 Nov 23:49:41 23:53:54 71° 285° (WNW) 23:58:05 437.405
MaSat-1 27 Nov 00:07:36 00:09:22 19° 57° (ENE) 00:11:08 437.345
ITUPSAT 1 27 Nov 00:13:52 00:17:42 24° 65° (ENE) 00:21:33 437.325
CUSAT 1 27 Nov 00:16:02 00:20:45 87° 260° (W) 00:27:08 437.405
ANTELSAT 27 Nov 00:17:07 00:20:53 27° 292° (WNW) 00:24:43 437.575/2403.000
ISS 27 Nov 00:18:19 00:21:34 62° 329° (NNW) 00:24:50 145.825
SWISSCUBE 27 Nov 00:23:56 00:28:11 32° 68° (ENE) 00:32:28 437.505
POLYITAN 1 27 Nov 00:24:15 00:27:57 30° 291° (WNW) 00:31:38 437.675
QB50P2 27 Nov 00:25:56 00:29:35 29° 292° (WNW) 00:33:13 145.880/145.840
AUBIESAT-1 27 Nov 00:30:57 00:35:00 60° 68° (ENE) 00:39:27 437.475
DUCHIFAT 1 27 Nov 00:31:28 00:34:58 26° 292° (WNW) 00:38:27 145.980
M-CUBED/EXP-1 PRIME 27 Nov 00:36:50 00:40:55 76° 70° (ENE) 00:45:26 437.505
TISAT 1 27 Nov 00:37:42 00:41:28 30° 263° (W) 00:45:15 437.305
DANDE 27 Nov 00:46:13 00:50:41 54° 262° (W) 00:56:42 436.750
SPROUT 27 Nov 00:50:43 00:54:21 26° 265° (W) 00:57:59 437.525
NANOSAT C BR1 27 Nov 00:51:43 00:54:24 17° 296° (WNW) 00:57:05 145.865
BEESAT 27 Nov 00:54:15 00:58:57 59° 72° (ENE) 01:03:41 436.000
QB50P1 27 Nov 01:02:18 01:04:20 13° 298° (WNW) 01:06:22 145.935-145.965
Oscar 19 27 Nov 01:06:42 01:10:21 19° 92° (E) 01:14:00 437.125/150
KKS-1 27 Nov 01:07:09 01:10:03 17° 63° (ENE) 01:12:57 437.445
BUGSAT 1 27 Nov 01:07:58 01:09:52 13° 298° (WNW) 01:11:46 437.445
RS-15 27 Nov 01:14:32 01:25:48 82° 55° (NE) 01:37:34 29.354- 29.394
ITUPSAT 1 27 Nov 01:50:52 01:55:22 40° 262° (W) 01:59:55 437.325
ISS 27 Nov 01:56:10 01:58:42 20° 349° (NNW) 02:01:13 145.825
STARS 27 Nov 01:59:24 02:03:29 39° 70° (ENE) 02:07:35 437.465
ITAMSAT 1 27 Nov 02:01:38 02:05:47 24° 94° (E) 02:09:54 435.822/435.867
SWISSCUBE 27 Nov 02:01:54 02:06:02 29° 264° (W) 02:10:12 437.505
CUSAT 1 27 Nov 02:02:48 02:03:41 10° 271° (W) 02:04:35 437.405
AUBIESAT-1 27 Nov 02:08:32 02:10:31 13° 267° (W) 02:12:34 437.475
YUBILEINY 27 Nov 02:12:18 02:20:26 44° 87° (E) 02:28:34 435.215
M-CUBED/EXP-1 PRIME 27 Nov 02:16:35 02:16:39 10° 269° (W) 02:16:44 437.505
BEESAT 27 Nov 02:34:21 02:37:11 16° 269° (W) 02:40:02 436.000
Gurwin Techsat 1B 27 Nov 02:39:21 02:44:05 32° 96° (E) 02:48:47 435.225
KKS-1 27 Nov 02:41:59 02:46:18 50° 260° (W) 02:50:39 437.445
Oscar 19 27 Nov 02:44:58 02:50:00 54° 289° (WNW) 02:55:02 437.125/150
SO-50 27 Nov 03:04:39 03:08:10 23° 112° (ESE) 03:11:46 436.795
BEESAT 2 27 Nov 03:22:08 03:23:35 12° 35° (NE) 03:25:03 435.950
AO-7 27 Nov 03:22:26 03:27:46 18° 90° (E) 03:33:04 29.400- 29.500
RS-15 27 Nov 03:28:04 03:37:01 29° 257° (WSW) 03:46:19 29.354- 29.394
ISS 27 Nov 03:33:45 03:36:12 19° 9° (N) 03:38:39 145.825
STARS 27 Nov 03:36:52 03:40:07 20° 266° (W) 03:43:22 437.465
PCSat 27 Nov 03:39:24 03:43:43 23° 44° (NE) 03:48:01 145.827
ITAMSAT 1 27 Nov 03:40:33 03:45:27 43° 291° (WNW) 03:50:18 435.822/435.867
HORYU 2 27 Nov 03:49:58 03:54:28 67° 102° (ESE) 03:58:56 437.375
MOZHAYETS 4 27 Nov 03:54:38 03:58:30 27° 67° (ENE) 04:02:24
AIST 2 27 Nov 04:00:50 04:03:06 14° 37° (NE) 04:05:21 435.215
YUBILEINY 27 Nov 04:09:00 04:17:14 43° 288° (WNW) 04:25:29 435.215
Gurwin Techsat 1B 27 Nov 04:19:16 04:24:02 34° 293° (WNW) 04:28:45 435.225
BEESAT 3 27 Nov 04:42:09 04:46:15 51° 52° (NE) 04:50:19 437.485
PRISM 27 Nov 04:43:35 04:46:19 17° 64° (ENE) 04:49:04 437.425
SO-50 27 Nov 04:44:04 04:48:25 44° 310° (NW) 04:52:55 436.795
BEESAT 2 27 Nov 04:58:29 05:02:42 67° 55° (NE) 05:06:51 435.950
STRAND 1 27 Nov 05:01:41 05:04:03 13° 58° (ENE) 05:06:26 437.568
ISS 27 Nov 05:10:09 05:13:23 51° 29° (NNE) 05:16:37 145.825
AO-7 27 Nov 05:13:12 05:21:38 87° 108° (ESE) 05:30:01 29.400- 29.500
PCSat 27 Nov 05:22:12 05:27:34 63° 244° (WSW) 05:32:54 145.827
HORYU 2 27 Nov 05:28:21 05:30:36 14° 299° (WNW) 05:32:51 437.375
JAS-2 27 Nov 05:28:53 05:35:43 50° 97° (E) 05:41:44 435.910
MOZHAYETS 4 27 Nov 05:31:33 05:35:37 31° 264° (W) 05:39:45
CUTE-I 27 Nov 05:32:15 05:34:03 12° 88° (E) 05:35:50 437.470
AIST 2 27 Nov 05:38:05 05:42:25 84° 56° (NE) 05:46:41 435.215
CUBESAT XI-V 27 Nov 05:39:18 05:43:11 26° 67° (ENE) 05:47:05 437.345
O/OREOS (USA 219) 27 Nov 05:52:19 05:56:37 46° 107° (ESE) 06:00:54 437.305
PRISM 27 Nov 06:17:28 06:21:31 46° 260° (W) 06:25:36 437.425
BEESAT 3 27 Nov 06:21:25 06:24:05 17° 250° (WSW) 06:26:43 437.485
Cubesat XI-IV 27 Nov 06:28:35 06:33:37 41° 98° (E) 06:38:36 437.490
SO-50 27 Nov 06:29:49 06:30:14 10° 332° (NNW) 06:30:38 436.795
STRAND 1 27 Nov 06:37:21 06:42:30 87° 256° (WSW) 06:47:41 437.568
BEESAT 2 27 Nov 06:38:39 06:40:26 13° 252° (WSW) 06:42:12 435.950
AIST 1 27 Nov 06:39:29 06:43:40 42° 77° (ENE) 06:47:47
ISS 27 Nov 06:47:15 06:49:49 21° 225° (SW) 06:52:23 145.825
AO-7 27 Nov 07:07:13 07:13:25 24° 309° (NW) 07:19:39 29.400- 29.500
CUTE-I 27 Nov 07:09:28 07:14:49 87° 285° (WNW) 07:20:07 437.470
JAS-2 27 Nov 07:14:20 07:20:24 31° 299° (WNW) 07:25:54 435.910
CUBESAT XI-V 27 Nov 07:16:10 07:20:28 35° 263° (W) 07:24:48 437.345
O/OREOS (USA 219) 27 Nov 07:32:59 07:36:16 20° 306° (NW) 07:39:32 437.305
GONETS M04 27 Nov 08:02:24 08:10:43 49° 88° (E) 08:19:05
Cubesat XI-IV 27 Nov 08:09:04 08:13:30 27° 295° (WNW) 08:17:55 437.490
HO-68 27 Nov 08:11:42 08:16:17 18° 90° (E) 08:20:50 435.675
AIST 1 27 Nov 08:18:11 08:20:57 17° 274° (W) 08:23:42
STRAND 1 27 Nov 08:21:42 08:22:24 10° 272° (W) 08:23:06 437.568
CANX-2 27 Nov 08:26:09 08:28:29 14° 91° (E) 08:30:50 2200.000
BRITE-PL 27 Nov 08:27:11 08:28:48 12° 90° (E) 08:30:26 437.365/2234.400
CUTE-I 27 Nov 08:51:44 08:54:05 13° 303° (WNW) 08:56:25 437.470
CUTE 1.7 + AOD 2 27 Nov 08:59:28 09:03:16 30° 96° (E) 09:07:03 437.475
TIGRISAT 27 Nov 09:00:33 09:01:32 11° 60° (ENE) 09:02:31 435.000
CINEMA 3 27 Nov 09:08:04 09:09:26 11° 90° (E) 09:10:49 145.822/145.860
UNISAT 6 27 Nov 09:13:20 09:15:48 15° 63° (ENE) 09:18:17 437.425
GOMX 1 27 Nov 09:28:01 09:31:59 41° 99° (E) 09:36:02 467.674
SEEDS 27 Nov 09:30:28 09:34:41 57° 100° (E) 09:38:54 437.485
UKube-1 27 Nov 09:31:21 09:34:24 19° 93° (E) 09:37:26 .
FUNcube-1 27 Nov 09:37:59 09:39:10 11° 90° (E) 09:40:22 145.935
ANTELSAT 27 Nov 09:40:51 09:44:30 29° 68° (ENE) 09:48:11 437.575/2403.000
Oscar 11 27 Nov 09:41:01 09:44:48 28° 96° (E) 09:48:33 145.826/435.025
POLYITAN 1 27 Nov 09:43:15 09:46:31 22° 66° (ENE) 09:49:47 437.675
DELFI C3 27 Nov 09:43:20 09:46:46 25° 95° (E) 09:50:11 145.870
AAUSAT CUBESAT 2 27 Nov 09:44:32 09:48:44 62° 101° (E) 09:52:56 437.432
QB50P2 27 Nov 09:44:38 09:47:57 23° 67° (ENE) 09:51:16 145.880/145.840
DUCHIFAT 1 27 Nov 09:49:35 09:53:02 25° 67° (ENE) 09:56:30 145.980
HO-68 27 Nov 09:57:36 10:04:49 85° 288° (WNW) 10:11:58 435.675
GONETS M04 27 Nov 09:59:38 10:07:42 39° 289° (WNW) 10:15:52
CANX-2 27 Nov 10:00:33 10:04:45 52° 287° (WNW) 10:08:55 2200.000
COMPASS 1 27 Nov 10:00:48 10:05:03 77° 284° (WNW) 10:09:18 437.405
BRITE-PL 27 Nov 10:03:40 10:07:43 55° 286° (WNW) 10:11:50 437.365/2234.400
UWE-3 27 Nov 10:05:31 10:09:09 27° 96° (E) 10:12:50 435.000/436.395/437.385
DX 1 27 Nov 10:07:28 10:11:40 46° 100° (E) 10:15:50 434.975-435.025
CUBEBUG 2 27 Nov 10:08:02 10:11:54 33° 97° (E) 10:15:50 437.445
NANOSAT C BR1 27 Nov 10:08:38 10:12:36 39° 71° (ENE) 10:16:34 145.865
HUMSAT D 27 Nov 10:11:03 10:13:36 16° 92° (E) 10:16:11 437.325/437.525
DOVE 4 27 Nov 10:17:20 10:21:31 74° 285° (WNW) 10:25:49 437.250
QB50P1 27 Nov 10:18:33 10:22:40 51° 73° (ENE) 10:26:48 145.935-145.965
BUGSAT 1 27 Nov 10:21:49 10:25:53 46° 72° (ENE) 10:29:56 437.445
TIGRISAT 27 Nov 10:33:25 10:37:40 78° 257° (WSW) 10:41:57 435.000
CUTE 1.7 + AOD 2 27 Nov 10:35:33 10:39:05 25° 292° (WNW) 10:42:36 437.475
ZACube-1 27 Nov 10:37:06 10:41:15 51° 100° (E) 10:45:27 437.345
CINEMA 3 27 Nov 10:42:52 10:47:03 64° 285° (WNW) 10:51:22 145.822/145.860
POPSAT HIP 1 27 Nov 10:43:24 10:47:40 85° 256° (WSW) 10:51:57 437.405
VELOX 1 27 Nov 10:43:34 10:47:39 36° 98° (E) 10:51:42 145.980
UNISAT 6 27 Nov 10:48:02 10:52:11 52° 260° (W) 10:56:23 437.425
ESTCUBE 1 27 Nov 10:48:10 10:51:02 16° 91° (E) 10:53:53 437.505/2401.250
UKube-1 27 Nov 11:06:40 11:10:45 41° 290° (WNW) 11:14:48 .
GOMX 1 27 Nov 11:07:06 11:09:51 17° 295° (WNW) 11:12:39 467.674
SEEDS 27 Nov 11:07:47 11:10:04 14° 297° (WNW) 11:12:21 437.485
AISAT 27 Nov 11:10:30 11:14:56 73° 102° (ESE) 11:19:20 437.250
FUNcube-1 27 Nov 11:11:44 11:15:57 67° 285° (WNW) 11:20:14 145.935
Oscar 11 27 Nov 11:17:13 11:20:53 27° 292° (WNW) 11:24:33 145.826/435.025
ANTELSAT 27 Nov 11:17:46 11:21:18 25° 265° (W) 11:24:52 437.575/2403.000
CUBEBUG 1 27 Nov 11:18:20 11:22:13 31° 96° (E) 11:26:04 437.445
POLYITAN 1 27 Nov 11:18:24 11:22:17 34° 263° (W) 11:26:10 437.675
DELFI C3 27 Nov 11:18:30 11:22:03 28° 291° (WNW) 11:25:35 145.870
QB50P2 27 Nov 11:19:51 11:23:42 33° 263° (W) 11:27:34 145.880/145.840
AAUSAT CUBESAT 2 27 Nov 11:21:54 11:23:55 13° 297° (WNW) 11:25:56 437.432
50 SAT 27 Nov 11:24:29 11:28:35 87° 103° (ESE) 11:32:40 437.505
DUCHIFAT 1 27 Nov 11:25:04 11:28:48 30° 264° (W) 11:32:33 145.980
SO-50 27 Nov 11:34:24 11:38:43 31° 46° (NE) 11:43:04 436.795
UWE-3 27 Nov 11:42:03 11:45:40 27° 291° (WNW) 11:49:19 435.000/436.395/437.385
DX 1 27 Nov 11:44:40 11:47:34 18° 297° (WNW) 11:50:27 434.975-435.025
CUBEBUG 2 27 Nov 11:45:07 11:48:27 23° 293° (WNW) 11:51:51 437.445
NANOSAT C BR1 27 Nov 11:45:39 11:48:39 19° 267° (W) 11:51:38 145.865
HUMSAT D 27 Nov 11:45:40 11:49:39 45° 288° (WNW) 11:53:40 437.325/437.525
HO-68 27 Nov 11:46:56 11:51:31 19° 307° (NW) 11:56:05 435.675
QB50P1 27 Nov 11:56:31 11:58:52 14° 269° (W) 12:01:13 145.935-145.965
BUGSAT 1 27 Nov 11:58:58 12:01:37 16° 268° (W) 12:04:15 437.445
ZACube-1 27 Nov 12:14:43 12:17:15 16° 296° (WNW) 12:19:49 437.345
VELOX 1 27 Nov 12:20:36 12:24:02 23° 294° (WNW) 12:27:28 145.980
TISAT 1 27 Nov 12:21:43 12:25:40 38° 98° (E) 12:29:35 437.305
YUBILEINY 27 Nov 12:21:44 12:28:14 23° 63° (ENE) 12:34:40 435.215
ESTCUBE 1 27 Nov 12:23:48 12:28:13 50° 288° (WNW) 12:32:34 437.505/2401.250
Oscar 19 27 Nov 12:24:12 12:28:37 31° 66° (ENE) 12:33:04 437.125/150
SPROUT 27 Nov 12:36:06 12:40:16 50° 100° (E) 12:44:25 437.525
AISAT 27 Nov 12:49:09 12:50:59 12° 300° (WNW) 12:52:49 437.250
CUBEBUG 1 27 Nov 12:54:55 12:58:29 25° 293° (WNW) 13:02:00 437.445
BEESAT 27 Nov 12:55:31 12:58:05 14° 90° (E) 13:00:38 436.000
SO-50 27 Nov 13:14:49 13:19:22 40° 244° (WSW) 13:23:56 436.795
ITAMSAT 1 27 Nov 13:20:12 13:25:02 40° 68° (ENE) 13:29:53 435.822/435.867
CUSAT 1 27 Nov 13:31:56 13:34:31 50° 282° (WNW) 13:37:05 437.405
PHONESAT 2.4 27 Nov 13:33:09 13:33:58 11° 146° (SE) 13:34:47 2401.200-2431.200
VERMONT LUNAR 27 Nov 13:36:26 13:38:34 15° 150° (SSE) 13:40:42 437.305
AUBIESAT-1 27 Nov 13:47:39 13:52:25 48° 104° (ESE) 13:57:02 437.475
ITUPSAT 1 27 Nov 13:50:33 13:55:15 50° 100° (E) 13:59:53 437.325
M-CUBED/EXP-1 PRIME 27 Nov 13:53:56 13:58:50 61° 106° (ESE) 14:03:36 437.505
TISAT 1 27 Nov 13:58:14 14:01:15 19° 295° (WNW) 14:04:15 437.305
SWISSCUBE 27 Nov 14:00:48 14:05:37 70° 102° (ESE) 14:10:22 437.505
Gurwin Techsat 1B 27 Nov 14:01:06 14:06:16 54° 71° (ENE) 14:11:27 435.225
Oscar 19 27 Nov 14:03:16 14:07:52 34° 263° (W) 14:12:31 437.125/150
DANDE 27 Nov 14:05:26 14:07:30 20° 286° (WNW) 14:09:32 436.750
SPROUT 27 Nov 14:13:21 14:15:58 16° 296° (WNW) 14:18:35 437.525
YUBILEINY 27 Nov 14:17:24 14:26:08 82° 265° (W) 14:34:48 435.215
AO-7 27 Nov 14:22:08 14:29:00 30° 55° (NE) 14:35:54 29.400- 29.500
O/OREOS (USA 219) 27 Nov 14:23:39 14:25:46 13° 50° (NE) 14:27:54 437.305
BEESAT 27 Nov 14:31:36 14:36:22 64° 287° (WNW) 14:41:05 436.000
KKS-1 27 Nov 14:32:46 14:36:38 29° 96° (E) 14:40:29 437.445
HORYU 2 27 Nov 14:49:19 14:53:43 69° 74° (ENE) 14:58:09 437.375
ITAMSAT 1 27 Nov 15:00:17 15:04:37 26° 265° (W) 15:08:59 435.822/435.867
PHONESAT 2.4 27 Nov 15:08:42 15:12:06 35° 161° (SSE) 15:15:31 2401.200-2431.200
MaSat-1 27 Nov 15:09:47 15:12:43 67° 115° (ESE) 15:15:23 437.345
VERMONT LUNAR 27 Nov 15:13:03 15:16:30 43° 165° (SSE) 15:19:58 437.305
AUBIESAT-1 27 Nov 15:23:14 15:27:03 23° 301° (WNW) 15:30:49 437.475
STARS 27 Nov 15:24:47 15:29:10 71° 102° (ESE) 15:33:33 437.465
ITUPSAT 1 27 Nov 15:29:20 15:32:46 20° 297° (WNW) 15:36:11 437.325
M-CUBED/EXP-1 PRIME 27 Nov 15:29:56 15:33:23 19° 303° (WNW) 15:36:48 437.505
RS-15 27 Nov 15:39:18 15:49:33 48° 111° (ESE) 15:59:44 29.354- 29.394
SWISSCUBE 27 Nov 15:40:17 15:42:54 15° 300° (WNW) 15:45:31 437.505
JAS-2 27 Nov 15:40:36 15:47:03 30° 61° (ENE) 15:53:33 435.910
Gurwin Techsat 1B 27 Nov 15:42:44 15:46:33 20° 268° (W) 15:50:23 435.225
O/OREOS (USA 219) 27 Nov 16:01:17 16:05:46 78° 249° (WSW) 16:10:14 437.305
KKS-1 27 Nov 16:09:27 16:13:13 28° 293° (WNW) 16:16:58 437.445
AO-7 27 Nov 16:12:56 16:21:10 69° 255° (WSW) 16:29:29 29.400- 29.500
Cubesat XI-IV 27 Nov 16:16:10 16:17:33 11° 55° (NE) 16:18:57 437.490
YUBILEINY 27 Nov 16:16:43 16:21:27 16° 285° (WNW) 16:26:12 435.215
HORYU 2 27 Nov 16:29:22 16:30:52 12° 270° (W) 16:32:22 437.375
PHONESAT 2.4 27 Nov 16:46:58 16:50:39 61° 178° (S) 16:54:19 2401.200-2431.200
VERMONT LUNAR 27 Nov 16:51:12 16:54:47 61° 182° (S) 16:58:22 437.305
CUTE-I 27 Nov 16:53:49 16:57:58 23° 63° (ENE) 17:02:06 437.470
STARS 27 Nov 17:03:13 17:05:05 13° 299° (WNW) 17:06:57 437.465
JAS-2 27 Nov 17:23:50 17:31:27 67° 259° (W) 17:39:19 435.910
MOZHAYETS 4 27 Nov 17:25:24 17:30:01 58° 100° (E) 17:34:35
RS-15 27 Nov 17:51:06 18:01:44 55° 314° (NW) 18:12:30 29.354- 29.394
Cubesat XI-IV 27 Nov 17:51:21 17:56:42 73° 73° (ENE) 18:02:04 437.490
PRISM 27 Nov 18:00:26 18:03:51 23° 95° (E) 18:07:14 437.425
GONETS M04 27 Nov 18:11:56 18:18:58 25° 64° (ENE) 18:25:54
AO-7 27 Nov 18:12:25 18:15:26 12° 274° (W) 18:18:28 29.400- 29.500
PCSat 27 Nov 18:24:13 18:27:03 15° 103° (ESE) 18:29:54 145.827
PHONESAT 2.4 27 Nov 18:25:42 18:29:15 43° 195° (SSW) 18:32:47 2401.200-2431.200
VERMONT LUNAR 27 Nov 18:29:42 18:33:01 33° 199° (SSW) 18:36:19 437.305
CUTE-I 27 Nov 18:32:30 18:37:41 50° 260° (W) 18:42:54 437.470
HO-68 27 Nov 18:42:38 18:46:55 17° 52° (NE) 18:51:11 435.675
STRAND 1 27 Nov 18:47:37 18:52:04 29° 96° (E) 18:56:28 437.568
BEESAT 2 27 Nov 18:58:22 18:59:06 10° 107° (ESE) 18:59:50 435.950
MOZHAYETS 4 27 Nov 19:03:53 19:06:46 16° 297° (WNW) 19:09:38
AIST 1 27 Nov 19:10:27 19:14:02 25° 89° (E) 19:17:39
CUBESAT XI-V 27 Nov 19:11:52 19:16:28 55° 100° (E) 19:21:00 437.345
JAS-2 27 Nov 19:14:52 19:17:48 12° 278° (W) 19:20:47 435.910
CANX-2 27 Nov 19:21:23 19:23:08 12° 62° (ENE) 19:24:54 2200.000
Cubesat XI-IV 27 Nov 19:34:24 19:37:20 15° 270° (W) 19:40:17 437.490
PRISM 27 Nov 19:35:40 19:39:26 31° 291° (WNW) 19:43:09 437.425
BRITE-PL 27 Nov 19:38:14 19:41:41 20° 66° (ENE) 19:44:58 437.365/2234.400
AIST 2 27 Nov 19:39:10 19:41:35 15° 109° (ESE) 19:44:01 435.215
DOVE 4 27 Nov 19:49:13 19:51:12 13° 63° (ENE) 19:53:09 437.250
CUTE 1.7 + AOD 2 27 Nov 19:53:50 19:57:16 25° 68° (ENE) 20:00:43 437.475
